Stündliche Wetter Warszkowo

Heute, 20 Oktober, Dienstag

Zeit Temperatur Niederschläge Wind Luftdruck Luftfeuchtigkeit
00:00 +6°C° 0.1 mm 4 m/S 763 mmHg 86%
01:00 +5°C° 0 mm 4 m/S 763 mmHg 90%
02:00 +5°C° 0 mm 4 m/S 763 mmHg 92%
03:00 +5°C° 0 mm 3 m/S 763 mmHg 93%
04:00 +5°C° 0 mm 3 m/S 763 mmHg 94%
05:00 +5°C° 0 mm 3 m/S 763 mmHg 92%
06:00 +5°C° 0 mm 3 m/S 763 mmHg 91%
07:00 +5°C° 0 mm 3 m/S 763 mmHg 91%
08:00 +7°C° 0 mm 3 m/S 763 mmHg 85%
09:00 +7°C° 0 mm 4 m/S 763 mmHg 79%
10:00 +8°C° 0 mm 4 m/S 763 mmHg 74%
11:00 +10°C° 0 mm 4 m/S 762 mmHg 71%
12:00 +9°C° 0 mm 5 m/S 762 mmHg 68%
13:00 +10°C° 0 mm 6 m/S 761 mmHg 64%
14:00 +10°C° 0 mm 6 m/S 761 mmHg 65%
15:00 +9°C° 0 mm 6 m/S 760 mmHg 67%
16:00 +9°C° 0 mm 5 m/S 759 mmHg 69%
17:00 +9°C° 0 mm 6 m/S 759 mmHg 70%
18:00 +9°C° 0 mm 6 m/S 758 mmHg 72%
19:00 +9°C° 0 mm 7 m/S 758 mmHg 73%
20:00 +9°C° 0 mm 6 m/S 757 mmHg 75%
21:00 +9°C° 0 mm 6 m/S 757 mmHg 76%
22:00 +9°C° 0 mm 5 m/S 756 mmHg 78%
23:00 +9°C° 0.1 mm 5 m/S 756 mmHg 79%

Morgen, 21 Oktober, Mittwoch

Zeit Temperatur Niederschläge Wind Luftdruck Luftfeuchtigkeit
00:00 +9°C° 0.1 mm 5 m/S 756 mmHg 81%
01:00 +9°C° 0.1 mm 5 m/S 755 mmHg 83%
02:00 +8°C° 0.1 mm 5 m/S 755 mmHg 86%
03:00 +8°C° 0.1 mm 4 m/S 755 mmHg 88%
04:00 +8°C° 0.1 mm 4 m/S 755 mmHg 90%
05:00 +8°C° 0.1 mm 4 m/S 755 mmHg 91%
06:00 +10°C° 0.1 mm 4 m/S 755 mmHg 92%
07:00 +10°C° 0.1 mm 3 m/S 755 mmHg 93%
08:00 +11°C° 0 mm 4 m/S 755 mmHg 91%
09:00 +11°C° 0 mm 4 m/S 755 mmHg 90%
10:00 +12°C° 0 mm 5 m/S 756 mmHg 88%
11:00 +13°C° 0 mm 4 m/S 756 mmHg 86%
12:00 +14°C° 0 mm 4 m/S 755 mmHg 83%
13:00 +14°C° 0 mm 4 m/S 755 mmHg 81%
14:00 +13°C° 0.4 mm 4 m/S 755 mmHg 83%
15:00 +13°C° 0.4 mm 5 m/S 755 mmHg 85%
16:00 +12°C° 0.4 mm 5 m/S 755 mmHg 88%
17:00 +11°C° 0.3 mm 6 m/S 754 mmHg 86%
18:00 +11°C° 0.3 mm 6 m/S 754 mmHg 83%
19:00 +11°C° 0.3 mm 6 m/S 754 mmHg 81%
20:00 +11°C° 0 mm 6 m/S 754 mmHg 78%
21:00 +11°C° 0 mm 6 m/S 753 mmHg 75%
22:00 +11°C° 0 mm 7 m/S 753 mmHg 72%
23:00 +11°C° 0 mm 7 m/S 753 mmHg 71%

übermorgen, 22 Oktober, Donnerstag

Zeit Temperatur Niederschläge Wind Luftdruck Luftfeuchtigkeit
00:00 +12°C° 0 mm 8 m/S 753 mmHg 69%
01:00 +12°C° 0 mm 8 m/S 752 mmHg 68%
02:00 +12°C° 0 mm 9 m/S 752 mmHg 69%
03:00 +13°C° 0 mm 9 m/S 752 mmHg 71%
04:00 +13°C° 0 mm 9 m/S 751 mmHg 73%
05:00 +13°C° 0 mm 10 m/S 752 mmHg 75%
06:00 +13°C° 0 mm 10 m/S 752 mmHg 78%
07:00 +13°C° 0 mm 10 m/S 753 mmHg 81%
08:00 +14°C° 0 mm 10 m/S 753 mmHg 77%
09:00 +15°C° 0 mm 9 m/S 753 mmHg 74%
10:00 +16°C° 0 mm 9 m/S 754 mmHg 70%
11:00 +16°C° 0 mm 8 m/S 754 mmHg 70%
12:00 +17°C° 0 mm 8 m/S 754 mmHg 71%
13:00 +17°C° 0 mm 7 m/S 755 mmHg 71%
14:00 +17°C° 0 mm 6 m/S 755 mmHg 72%
15:00 +16°C° 0 mm 6 m/S 755 mmHg 73%
16:00 +16°C° 0 mm 5 m/S 755 mmHg 73%
17:00 +16°C° 0 mm 5 m/S 755 mmHg 76%
18:00 +15°C° 0 mm 5 m/S 755 mmHg 78%
19:00 +15°C° 0 mm 5 m/S 755 mmHg 81%
20:00 +15°C° 0 mm 5 m/S 755 mmHg 82%
21:00 +15°C° 0 mm 6 m/S 755 mmHg 82%
22:00 +14°C° 0 mm 6 m/S 755 mmHg 83%
23:00 +14°C° 0 mm 6 m/S 754 mmHg 83%

23 Oktober, Freitag

Zeit Temperatur Niederschläge Wind Luftdruck Luftfeuchtigkeit
00:00 +14°C° 0 mm 6 m/S 754 mmHg 82%
01:00 +14°C° 0 mm 5 m/S 754 mmHg 82%
02:00 +14°C° 0.8 mm 6 m/S 753 mmHg 84%
03:00 +14°C° 0.8 mm 7 m/S 753 mmHg 86%
04:00 +14°C° 0.8 mm 7 m/S 753 mmHg 88%
05:00 +14°C° 0.2 mm 7 m/S 753 mmHg 88%
06:00 +13°C° 0.2 mm 8 m/S 753 mmHg 87%
07:00 +13°C° 0.2 mm 8 m/S 752 mmHg 86%
08:00 +13°C° 0 mm 8 m/S 753 mmHg 82%
09:00 +13°C° 0 mm 9 m/S 753 mmHg 77%
10:00 +15°C° 0 mm 9 m/S 753 mmHg 73%
11:00 +13°C° 0 mm 9 m/S 753 mmHg 73%
12:00 +13°C° 0 mm 8 m/S 754 mmHg 73%
13:00 +13°C° 0 mm 8 m/S 754 mmHg 73%
14:00 +12°C° 0 mm 8 m/S 754 mmHg 75%
15:00 +12°C° 0 mm 7 m/S 754 mmHg 77%
16:00 +11°C° 0 mm 6 m/S 754 mmHg 79%
17:00 +11°C° 0 mm 6 m/S 754 mmHg 80%
18:00 +10°C° 0 mm 5 m/S 754 mmHg 82%
19:00 +11°C° 0 mm 4 m/S 755 mmHg 83%
20:00 +11°C° 0 mm 4 m/S 754 mmHg 86%
21:00 +10°C° 0 mm 4 m/S 754 mmHg 88%
22:00 +10°C° 0 mm 4 m/S 754 mmHg 90%
23:00 +10°C° 0 mm 4 m/S 754 mmHg 90%

24 Oktober, Samstag

Zeit Temperatur Niederschläge Wind Luftdruck Luftfeuchtigkeit
00:00 +10°C° 0 mm 4 m/S 754 mmHg 90%
01:00 +10°C° 0 mm 3 m/S 754 mmHg 90%
02:00 +10°C° 0 mm 3 m/S 753 mmHg 91%
03:00 +10°C° 0 mm 3 m/S 753 mmHg 91%
04:00 +10°C° 0 mm 3 m/S 753 mmHg 91%
05:00 +10°C° 0.1 mm 3 m/S 752 mmHg 92%
06:00 +10°C° 0.1 mm 3 m/S 752 mmHg 92%
07:00 +10°C° 0.1 mm 4 m/S 752 mmHg 93%
08:00 +10°C° 1.2 mm 4 m/S 752 mmHg 92%
09:00 +10°C° 1.2 mm 5 m/S 752 mmHg 90%
10:00 +10°C° 1.2 mm 6 m/S 751 mmHg 89%
11:00 +10°C° 0.4 mm 8 m/S 752 mmHg 83%
12:00 +11°C° 0.4 mm 9 m/S 752 mmHg 78%
13:00 +11°C° 0.4 mm 11 m/S 752 mmHg 72%
14:00 +9°C° 0.2 mm 11 m/S 753 mmHg 72%
15:00 +9°C° 0.2 mm 11 m/S 753 mmHg 71%
16:00 +9°C° 0.2 mm 11 m/S 754 mmHg 70%
17:00 +8°C° 0 mm 10 m/S 755 mmHg 71%
18:00 +8°C° 0 mm 9 m/S 755 mmHg 72%
19:00 +7°C° 0 mm 8 m/S 756 mmHg 73%
20:00 +7°C° 0 mm 8 m/S 757 mmHg 76%
21:00 +8°C° 0 mm 7 m/S 757 mmHg 78%
22:00 +8°C° 0 mm 7 m/S 758 mmHg 80%
23:00 +7°C° 0 mm 6 m/S 758 mmHg 83%

25 Oktober, Sonntag

Zeit Temperatur Niederschläge Wind Luftdruck Luftfeuchtigkeit
00:00 +7°C° 0 mm 6 m/S 758 mmHg 86%
01:00 +7°C° 0 mm 6 m/S 758 mmHg 88%
02:00 +7°C° 0 mm 5 m/S 759 mmHg 89%
03:00 +7°C° 0 mm 5 m/S 759 mmHg 90%
04:00 +6°C° 0 mm 5 m/S 759 mmHg 91%
05:00 +6°C° 0 mm 5 m/S 759 mmHg 90%
06:00 +6°C° 0 mm 4 m/S 759 mmHg 90%
07:00 +5°C° 0 mm 4 m/S 759 mmHg 89%
08:00 +6°C° 0 mm 4 m/S 760 mmHg 82%
09:00 +8°C° 0 mm 4 m/S 760 mmHg 75%
10:00 +10°C° 0 mm 4 m/S 760 mmHg 68%
11:00 +11°C° 0 mm 4 m/S 759 mmHg 65%
12:00 +12°C° 0 mm 4 m/S 759 mmHg 62%
13:00 +12°C° 0 mm 4 m/S 759 mmHg 59%
14:00 +12°C° 0 mm 4 m/S 759 mmHg 63%
15:00 +11°C° 0 mm 4 m/S 759 mmHg 67%
16:00 +11°C° 0 mm 4 m/S 758 mmHg 70%
17:00 +9°C° 0 mm 5 m/S 758 mmHg 72%
18:00 +9°C° 0 mm 5 m/S 758 mmHg 74%
19:00 +8°C° 0 mm 6 m/S 758 mmHg 76%
20:00 +8°C° 0 mm 6 m/S 758 mmHg 77%
21:00 +8°C° 0 mm 6 m/S 758 mmHg 78%
22:00 +8°C° 0 mm 6 m/S 758 mmHg 79%
23:00 +7°C° 0 mm 6 m/S 758 mmHg 78%

26 Oktober, Montag

Zeit Temperatur Niederschläge Wind Luftdruck Luftfeuchtigkeit
00:00 +7°C° 0 mm 6 m/S 757 mmHg 77%
01:00 +7°C° 0 mm 6 m/S 757 mmHg 77%
02:00 +7°C° 0 mm 6 m/S 757 mmHg 77%
03:00 +7°C° 0 mm 6 m/S 757 mmHg 77%
04:00 +5°C° 0 mm 6 m/S 757 mmHg 78%
05:00 +5°C° 0 mm 6 m/S 757 mmHg 78%
06:00 +5°C° 0 mm 6 m/S 757 mmHg 79%
07:00 +5°C° 0 mm 6 m/S 757 mmHg 79%
08:00 +7°C° 0 mm 6 m/S 757 mmHg 75%
09:00 +8°C° 0 mm 6 m/S 757 mmHg 71%
10:00 +9°C° 0 mm 6 m/S 757 mmHg 67%
11:00 +10°C° 0 mm 6 m/S 756 mmHg 65%
12:00 +12°C° 0 mm 5 m/S 756 mmHg 63%
13:00 +12°C° 0 mm 5 m/S 756 mmHg 62%
14:00 +12°C° 0 mm 5 m/S 756 mmHg 65%
15:00 +10°C° 0 mm 5 m/S 756 mmHg 68%
16:00 +9°C° 0 mm 5 m/S 756 mmHg 71%
17:00 +10°C° 0 mm 4 m/S 756 mmHg 73%
18:00 +8°C° 0 mm 4 m/S 756 mmHg 76%
19:00 +8°C° 0 mm 4 m/S 756 mmHg 78%
20:00 +7°C° 0 mm 4 m/S 756 mmHg 80%
21:00 +8°C° 0 mm 3 m/S 756 mmHg 81%
22:00 +8°C° 0 mm 3 m/S 756 mmHg 82%
23:00 +8°C° 0.3 mm 3 m/S 756 mmHg 85%
Mehr zeigen

Wir brauchen deine Erlaubnis

Meteoprog und unser Service Anbieter werden persönliche Daten aufbewahren, so wie Cookies, Geräte Bezeichnung oder ähnliche Technologien von deinem Gerät und Prozess, so wie Persönliche Daten Inhalte und Werbungen, genauso wie social Media und den Verkehr zu analysieren.

  • Aufbewahrung und/oder Zugang zu deiner Geräte Informationen.

    Cookies, Geräte Bezeichnung oder andere Informationen, können aufbewahrt oder Zugang zu deinem Gerät erhalten, für den Grund, der oben angegeben wird.

  • Personalisierte Werbung und Inhalte, Messungen, Einblick in das Publikum und Produkt Entwicklung.

    Werbungen und Inhalte können personalisiert werden, basierend auf ein Profil. Mehr Daten können besser personalisierte Werbungen und Inhalte hinzufügen. Werbung und Inhalte können gezeigt und gemessen werden. Einblicke über das Publikum, welche die Werbung gesehen haben und den Inhalt, können abgeleitet werden. So wie Daten können genutzt werden, um es zu verbessern oder die Benutzer Erfahrung zu verbessern das System und die Software.

Wenn du “Ich stimme zu” klickst, erlaubst du uns, die Cookies zu benutzen die Geräte Bezeichnung, den Web oder ähnliche Technologien zu benutzen. Deine Settings, können in deinem Gerät bei deinem Browser geändert werden.

Für den bestimmten Zweck, berechtigten Interessen beruhen darauf, mehr als auf den Inhalt. Du kannst mehr darüber in unseren Privaten und Cookie Politik lesen.